TimeEDT,TemperatureF,Dew PointF,Humidity,Sea Level PressureIn,VisibilityMPH,Wind Direction,Wind SpeedMPH,Gust SpeedMPH,PrecipitationIn,Events,Conditions,WindDirDegrees,DateUTC
12:56 AM,64.0,59.0,84,30.08,10.0,Calm,Calm,-,N/A,,Clear,0,2013-05-10 04:56:00
1:56 AM,63.0,57.9,84,30.07,10.0,Calm,Calm,-,N/A,,Clear,0,2013-05-10 05:56:00
2:56 AM,62.1,57.9,86,30.06,10.0,Calm,Calm,-,N/A,,Clear,0,2013-05-10 06:56:00
3:56 AM,62.1,57.0,84,30.06,10.0,Calm,Calm,-,N/A,,Clear,0,2013-05-10 07:56:00
4:56 AM,60.1,55.0,83,30.06,10.0,Calm,Calm,-,N/A,,Clear,0,2013-05-10 08:56:00
5:56 AM,61.0,55.9,83,30.05,9.0,Calm,Calm,-,N/A,,Clear,0,2013-05-10 09:56:00
6:56 AM,62.1,55.9,80,30.06,6.0,Calm,Calm,-,N/A,,Haze,0,2013-05-10 10:56:00
7:56 AM,64.9,57.9,78,30.06,6.0,Calm,Calm,-,N/A,,Haze,0,2013-05-10 11:56:00
8:56 AM,69.1,60.1,73,30.06,9.0,Calm,Calm,-,N/A,,Scattered Clouds,0,2013-05-10 12:56:00
9:56 AM,77.0,62.1,60,30.07,9.0,Calm,Calm,-,N/A,,Partly Cloudy,0,2013-05-10 13:56:00
10:56 AM,82.0,62.1,51,30.06,10.0,SSW,3.5,-,N/A,,Partly Cloudy,200,2013-05-10 14:56:00
11:56 AM,86.0,57.9,38,30.06,10.0,SSW,11.5,18.4,N/A,,Scattered Clouds,210,2013-05-10 15:56:00
12:56 PM,87.1,55.9,35,30.06,10.0,SW,11.5,20.7,N/A,,Scattered Clouds,220,2013-05-10 16:56:00
1:56 PM,86.0,55.0,35,30.04,10.0,WSW,11.5,-,N/A,,Scattered Clouds,240,2013-05-10 17:56:00
2:56 PM,87.1,55.0,33,30.02,10.0,SW,13.8,-,N/A,,Mostly Cloudy,220,2013-05-10 18:56:00
3:56 PM,87.1,55.0,33,29.99,10.0,SSW,12.7,-,N/A,,Mostly Cloudy,210,2013-05-10 19:56:00
4:56 PM,87.1,55.9,35,29.98,10.0,SW,15.0,19.6,N/A,,Mostly Cloudy,230,2013-05-10 20:56:00
5:56 PM,84.9,55.9,37,29.97,10.0,SW,5.8,-,N/A,,Mostly Cloudy,230,2013-05-10 21:56:00
6:56 PM,82.9,57.9,42,29.97,10.0,SW,4.6,-,N/A,,Mostly Cloudy,230,2013-05-10 22:56:00
7:56 PM,81.0,59.0,47,29.97,10.0,South,3.5,-,N/A,,Overcast,190,2013-05-10 23:56:00
8:56 PM,78.1,60.1,54,29.97,10.0,SSW,4.6,-,N/A,,Overcast,200,2013-05-11 00:56:00
9:56 PM,75.9,61.0,60,29.98,10.0,South,5.8,-,N/A,,Mostly Cloudy,180,2013-05-11 01:56:00
10:56 PM,75.9,61.0,60,29.99,10.0,South,8.1,-,N/A,,Overcast,170,2013-05-11 02:56:00
11:56 PM,75.0,60.1,60,29.99,10.0,South,11.5,-,N/A,,Scattered Clouds,190,2013-05-11 03:56:00